Other Public Products
Issued by NWS Grand Forks, ND

Home | Current Version | Previous Version | Graphics & Text | Print | Product List | Glossary On
Versions: 1 2 3 4 5 6 7 8 9 10 11 12 13 14 15 16 17 18 19 20 21 22 23 24 25 26 27 28 29 30 31 32 33 34 35 36 37 38 39 40 41 42 43 44 45 46 47 48 49 50
000
FPUS83 KFGF 021710
OPUFGF
PRAIRIE TO PINES WEATHER ROUNDUP
NATIONAL WEATHER SERVICE EASTERN NORTH DAKOTA/GRAND FORKS ND
1200 PM CDT THU JUL 02 2015

 **SATELLITE DATA USED TO AUGMENT SKY COVER AT AUTOMATED STATIONS**
 *****  WEATHER ACROSS EASTERN NORTH DAKOTA  *****

CITY           SKY/WX    TMP DP  RH WIND       PRES   REMARKS
GRAND FORKS    SUNNY     74  61  63 S12       29.94F
GRAND FORKS AF SUNNY     75  62  65 SW13      29.95F
GRAND CITY NWS   N/A     73 N/A N/A SW18        N/A
BUXTON         NOT AVBL
DEVILS LAKE    PTSUNNY   73  63  68 W6        29.95S
FARGO          SUNNY     73  55  53 S15       29.98F
WAHPETON ARPT  NOT AVBL
$$

 *****  WEATHER ACROSS CENTRAL AND WESTERN NORTH DAKOTA  *****

CITY           SKY/WX    TMP DP  RH WIND       PRES   REMARKS
JAMESTOWN      MOSUNNY   73  65  75 S9        29.97S
BISMARCK       MOSUNNY   75  64  68 VRB6      29.99F HAZE
MINOT          PTSUNNY   72  61  68 NW8       29.98S HAZE
MINOT AFB      SUNNY     76  67  75 NW8       29.97F FOG
GARRISON         N/A     74  64  71 NW7       30.00S
WILLISTON      MOSUNNY   76  60  57 N10       30.04F HAZE
DICKINSON      SUNNY     71  59  65 NW9       30.04S
HETTINGER      SUNNY     73  58  59 NW12      30.08R
$$

 *****  OTHER OBSERVATIONS NORTHEAST NORTH DAKOTA  *****

CITY           SKY/WX    TMP DP  RH WIND       PRES   REMARKS
WALHALLA       FAIR      73  73 100 MISG      29.92F
LANGDON        PTSUNNY   75  66  73 W7        29.96S
CAVALIER       FAIR      75  66  73 S10       29.92F
GRAFTON        FAIR      75  64  69 S12       29.94F
CANDO          FAIR      73  63  68 W5        29.97S
FORT TOTTEN      N/A     76  67  74 NW5       29.95S
ROLLA            N/A     72  64  78 N6        29.98S
RUGBY          NOT AVBL
 ***** THE ABOVE OBSERVATIONS ARE NON NWS ARE NOT QUALITY
        CONTROLLED AND MAY MIS-REPORT RAIN FOR SNOW...
$$

 *****  OTHER OBSERVATIONS SOUTHEAST NORTH DAKOTA *****

CITY           SKY/WX    TMP DP  RH WIND       PRES   REMARKS
COOPERSTOWN    NOT AVBL
VALLEY CITY    FAIR      72  64  78 SW10      29.98S
OAKES            N/A     68  64  88 S9        30.00S
GWINNER        FAIR      72  55  56 S7        30.00S
SHEYENNE NWR     N/A     74  55  50 S7        29.95S
BUFFALO        NOT AVBL
WYNDMERE       NOT AVBL
 ***** THE ABOVE OBSERVATIONS ARE NON NWS ARE NOT QUALITY
       CONTROLLED AND MAY MIS-REPORT RAIN FOR SNOW...
$$

  *****  WEATHER ACROSS NORTHERN MINNESOTA  *****

CITY           SKY/WX    TMP DP  RH WIND       PRES   REMARKS
FLAG ISLAND    MOSUNNY   72  59  64 SW10      29.93F
WARROAD        SUNNY     72  61  68 SW8       29.97S
ROSEAU         SUNNY     72  61  68 SW9       29.96S
HALLOCK        MOSUNNY   72  63  73 S9        29.93S
THF RVR FALLS  SUNNY     72  52  49 SW12      29.98F
HALSTAD        NOT AVBL
FOSSTON        SUNNY     70  54  56 S13       30.00F
BAUDETTE       SUNNY     73  52  47 SW9G17    29.97S
WASKISH        MOSUNNY   72  59  64 SW6       30.00S
CROOKSTON      SUNNY     72  57  60 S12       29.98S
$$
  *****  WEATHER ACROSS CENTRAL AND WEST MINNESOTA  *****

CITY           SKY/WX    TMP DP  RH WIND       PRES   REMARKS
BEMIDJI        MOSUNNY   72  56  56 SW10      30.01S
PARK RAPIDS    SUNNY     73  53  49 S10       30.02S
WADENA           N/A     72  55  56 SW9       30.02S
DETROIT LAKES  SUNNY     70  54  56 S12       30.03S
MOORHEAD       SUNNY     73  55  53 S12       30.00S
FERGUS FALLS   SUNNY     72  55  56 S13       30.01S
ELBOW LAKE     FAIR      69  54  58 S13       30.02S
MORRIS MN      MOSUNNY   72  50  46 SE10      30.01S
STAPLES        SUNNY     72  54  53 S7        30.03S
WHEATON        PTSUNNY   68  52  56 SE8       30.02S
$$
  *****  WEATHER ELSEWHERE ACROSS MINNESOTA  *****

CITY           SKY/WX    TMP DP  RH WIND       PRES   REMARKS
DULUTH         MOSUNNY   74  57  55 W9        30.02F
INTRNTL FALLS  SUNNY     73  61  65 W6        29.97F
ELY            SUNNY     72  59  64 SW3       30.00S
CLOQUET        SUNNY     73  55  53 W7        30.03S
BRAINERD       SUNNY     74  54  49 SW9       30.03F
HIBBING        PTSUNNY   73  58  59 SW8       30.01F
ALEXANDRIA     SUNNY     69  54  58 S10       30.05S
SAINT CLOUD    SUNNY     72  54  53 VRB6      30.03S
MINNEAPOLIS    MOSUNNY   73  54  51 SE5       30.03F
$$

  *****  WEATHER ACROSS SOUTH DAKOTA  *****

CITY           SKY/WX    TMP DP  RH WIND       PRES   REMARKS
SIOUX FALLS    CLOUDY    65  57  75 E9        30.00S
BROOKINGS      CLOUDY    64  48  55 S6        30.03S
WATERTOWN      CLOUDY    69  51  52 S7        30.01R
HURON          CLOUDY    65  58  78 CALM      29.99R
SISSETON         N/A     70  53  54 S8        29.99S
ABERDEEN       LGT RAIN  61  59  93 SW5       30.01R
MITCHELL       CLOUDY    67  61  81 E7        29.97F
PIERRE         MOSUNNY   72  63  73 N9        29.98F
MOBRIDGE       MOSUNNY   73  67  81 NW10      29.97S
RAPID CITY     MOSUNNY   76  62  62 N20G28    30.10S
$$

  *****  SOME WEATHER IN NEARBY STATES *****

CITY           SKY/WX    TMP DP  RH WIND       PRES   REMARKS
GLASGOW MT     PTSUNNY   71  58  63 NW15G21   30.09F HAZE
GREAT FALLS MT SUNNY     74  52  46 N7        30.19F
CHEYENNE WY    SUNNY     74  50  42 N7        30.25F
SCOTTSBLUFF NE SUNNY     77  62  59 NW10      30.13S
OMAHA NE       RAIN      65  63  93 E3        29.98R FOG
DES MOINES IA  CLOUDY    68  56  65 E9        29.98F
DAVENPORT IA   MOSUNNY   69  52  54 NE12      30.00F
CHICAGO IL     MOSUNNY   66  54  65 NE15      30.01S
EAU CLAIRE WI  SUNNY     70  51  51 S5        30.04F
LA CROSSE WI   MOSUNNY   70  52  52 CALM      30.05
$$

  *****  SOME NATIONAL WEATHER *****

CITY           SKY/WX    TMP DP  RH WIND       PRES   REMARKS
LA GUARDIA NY  CLOUDY    79  57  46 NE7       29.89F
RALEIGH NC     PTSUNNY   85  69  58 W9G17     29.92F
ATLANTA GA     PTSUNNY   84  70  62 W14G20    30.03S
NEW ORLEANS LA CLOUDY    87  74  64 SW9       30.10F HX  95
OKLAHOMA CITY  PTSUNNY   87  71  58 SW15      29.92R HX  93
ALBUQUERQUE NM MOSUNNY   85  52  32 NW8       30.14F
SALT LAKE CITY MOSUNNY   90  57  32 NW7       30.07F
LOS ANGELES CA PTSUNNY   68  63  84 W8        30.00S
BOISE ID       SUNNY     85  51  31 W7        30.01F
SEATTLE WA     SUNNY     80  54  40 N6        30.04S
$$

*** WEATHER ACROSS MANITOBA...SASKATCHEWAN AND ONTARIO ***
                ***ONTARIO***

CITY           SKY/WX    TMP DP  RH WIND       PRES   REMARKS
GERALDTON      PTSUNNY   72  54  53 SW6       29.95F
THUNDER BAY    CLOUDY    73  59  60 NE7       29.95F
SIOUX LOOKOUT  CLOUDY    64  61  88 SW6       29.93F
TORONTO        PTSUNNY   70  46  43 NW8       30.00S
BIG TROUT LK   SUNNY     75  50  41 SE7       29.79F
PICKLE LAKE    CLOUDY    68  59  73 SW12      29.88F
DRYDEN         SUNNY     73  61  64 SW13      29.92F
KENORA         PTSUNNY   72  61  68 SW13      29.94F
$$
                *** MANITOBA***

CITY           SKY/WX    TMP DP  RH WIND       PRES   REMARKS
BRANDON        CLOUDY    70  66  88 W9        29.94S SMOKE
DAUPHIN        PTSUNNY   70  64  83 NW6       29.92F HAZE
ISLAND LAKE    PTSUNNY   73  61  64 VRB2      29.79F
PILOT MOUND      N/A     72  63  73 W5          N/A
THE PAS        SUNNY     75  61  60 W12       29.87S SMOKE
THOMPSON       PTSUNNY   70  57  64 W14       29.74R SMOKE
WINNIPEG       MOSUNNY   73  66  78 SW8       29.91S
LYNN LAKE      MOSUNNY   70  52  52 NW13G22   29.85R
CHURCHILL      PTSUNNY   64  61  88 N12       29.66S
GILLAM         CLOUDY    72  57  60 W6        29.68F
$$
                ***SASKATCHEWAN***

CITY           SKY/WX    TMP DP  RH WIND       PRES   REMARKS
ESTEVAN        CLOUDY    73  63  68 NW10      30.02S SMOKE
KINDERSLEY     MOSUNNY   73  63  68 NW6       30.10F
LLOYDMINSTER   SUNNY     75  59  57 VRB2      30.08F
PRINCE ALBERT    N/A     75  64  69 NW6       29.99F SMOKE
REGINA         MOSUNNY   75  64  69 NW8       30.03F


USA.gov is the U.S. government's official web portal to all federal, state and local government web resources and services.